QPF
0.03 0.04 0.04 0.10 0.12 0.07 0.05 0.03 0.01 0.00 0.00 0.00 0.00 0.00 0.00 0.00 0.00 0.00 0.00 0.00 0.00 0.00 0.00 0.00 0.00 0.00 0.00 0.00 0.00 0.00 0.00 0.00 0.00 0.00 0.00 0.00 0.00 0.00
0.02 0.02 0.04 0.08 0.07 0.03 0.01 0.00 0.00 0.00 0.00 0.00 0.00 0.00 0.00 0.00 0.00 0.00 0.00 0.00 0.00 0.00 0.00 0.00 0.00 0.00 0.00 0.00 0.00 0.00 0.00 0.00 0.00 0.00 0.00 0.00 0.00 0.00
0.01 0.01 0.01 0.01 0.05 0.09 0.05 0.01 0.00 0.00 0.00 0.00 0.00 0.00 0.00 0.00 0.00 0.00 0.00 0.00 0.00 0.00 0.00 0.00 0.00 0.00 0.00 0.00 0.00 0.00 0.00 0.00 0.00 0.00 0.00 0.00 0.00 0.00
0.01 0.01 0.01 0.00 0.00 0.00 0.02 0.02 0.01 0.00 0.00 0.00 0.00 0.00 0.00 0.00 0.00 0.00 0.00 0.00 0.00 0.00 0.00 0.00 0.00 0.00 0.00 0.00 0.00 0.00 0.00 0.00 0.00 0.00 0.00 0.00 0.00 0.00
0.01 0.01 0.00 0.00 0.00 0.00 0.00 0.00 0.00 0.00 0.00 0.00 0.00 0.00 0.00 0.00 0.00 0.00 0.00 0.00 0.00 0.00 0.00 0.00 0.00 0.00 0.00 0.00 0.00 0.00 0.00 0.00 0.00 0.00 0.00 0.00 0.00 0.00
0.01 0.01 0.00 0.00 0.00 0.00 0.00 0.00 0.00 0.00 0.00 0.00 0.00 0.00 0.00 0.00 0.00 0.00 0.00 0.00 0.00 0.00 0.00 0.00 0.00 0.00 0.00 0.00 0.00 0.00 0.00 0.00 0.00 0.00 0.00 0.00 0.00 0.00
0.00 0.00 0.00 0.00 0.00 0.02 0.01 0.00 0.00 0.00 0.00 0.00 0.00 0.00 0.00 0.00 0.00 0.00 0.00 0.00 0.00 0.00 0.00 0.00 0.00 0.00 0.00 0.00 0.00 0.00 0.00 0.00 0.00 0.00 0.00 0.00 0.00 0.00
0.00 0.00 0.00 0.00 0.00 0.00 0.00 0.00 0.00 0.00 0.00 0.00 0.00 0.00 0.00 0.00 0.00 0.00 0.00 0.00 0.00 0.00 0.00 0.00 0.00 0.00 0.00 0.00 0.00 0.00 0.00 0.00 0.00 0.00 0.00 0.00 0.00 0.00
0.00 0.00 0.00 0.00 0.00 0.00 0.00 0.00 0.00 0.00 0.00 0.01 0.01 0.01 0.01 0.00 0.00 0.01 0.00 0.00 0.00 0.00 0.00 0.00 0.00 0.00 0.00 0.00 0.02 0.02 0.01 0.01 0.00 0.00 0.00 0.00 0.00 0.00
0.00 0.00 0.00 0.00 0.00 0.00 0.00 0.00 0.00 0.00 0.00 0.01 0.01 0.02 0.03 0.04 0.02 0.02 0.01 0.01 0.02 0.01 0.00 0.01 0.00 0.00 0.00 0.00 0.03 0.03 0.01 0.01 0.00 0.00 0.00 0.00 0.00 0.00
0.00 0.00 0.00 0.00 0.00 0.00 0.00 0.00 0.00 0.00 0.00 0.00 0.00 0.00 0.00 0.01 0.05 0.04 0.03 0.02 0.02 0.01 0.01 0.02 0.02 0.01 0.02 0.02 0.04 0.09 0.06 0.03 0.02 0.01 0.00 0.00 0.00 0.00
0.00 0.00 0.00 0.00 0.00 0.00 0.00 0.00 0.00 0.00 0.00 0.00 0.00 0.00 0.00 0.00 0.04 0.05 0.02 0.02 0.02 0.01 0.00 0.01 0.03 0.02 0.03 0.02 0.02 0.04 0.04 0.04 0.02 0.01 0.00 0.00 0.00 0.00
0.00 0.00 0.00 0.00 0.00 0.00 0.00 0.00 0.00 0.00 0.00 0.00 0.00 0.00 0.00 0.00 0.00 0.01 0.01 0.01 0.02 0.03 0.03 0.05 0.03 0.01 0.02 0.02 0.01 0.03 0.05 0.05 0.04 0.02 0.01 0.00 0.00 0.00
0.00 0.00 0.00 0.00 0.00 0.00 0.00 0.00 0.00 0.01 0.00 0.00 0.00 0.00 0.00 0.00 0.00 0.00 0.01 0.03 0.05 0.05 0.06 0.08 0.05 0.03 0.04 0.05 0.04 0.03 0.05 0.05 0.04 0.02 0.01 0.00 0.00 0.01
0.00 0.00 0.00 0.00 0.00 0.00 0.00 0.00 0.00 0.00 0.00 0.00 0.00 0.00 0.00 0.00 0.00 0.00 0.01 0.03 0.05 0.05 0.06 0.04 0.04 0.04 0.06 0.06 0.04 0.03 0.04 0.04 0.03 0.02 0.01 0.00 0.00 0.00
0.00 0.00 0.00 0.00 0.00 0.00 0.00 0.00 0.00 0.00 0.00 0.00 0.00 0.00 0.00 0.00 0.00 0.01 0.01 0.01 0.02 0.05 0.06 0.06 0.08 0.09 0.09 0.09 0.06 0.04 0.02 0.01 0.01 0.00 0.00 0.00 0.00 0.00
0.00 0.00 0.00 0.00 0.00 0.00 0.00 0.00 0.00 0.01 0.01 0.00 0.00 0.00 0.01 0.01 0.01 0.01 0.01 0.01 0.02 0.03 0.06 0.08 0.10 0.09 0.07 0.06 0.03 0.01 0.01 0.01 0.00 0.00 0.00 0.00 0.00 0.00
0.00 0.00 0.00 0.00 0.00 0.00 0.00 0.00 0.02 0.03 0.01 0.01 0.01 0.01 0.01 0.01 0.01 0.02 0.01 0.02 0.02 0.03 0.03 0.04 0.06 0.06 0.04 0.02 0.01 0.01 0.00 0.00 0.00 0.00 0.00 0.00 0.00 0.00
0.00 0.00 0.00 0.00 0.00 0.00 0.00 0.01 0.02 0.02 0.03 0.03 0.03 0.03 0.03 0.03 0.06 0.03 0.03 0.03 0.02 0.02 0.02 0.02 0.02 0.01 0.01 0.01 0.00 0.00 0.00 0.00 0.00 0.00 0.00 0.00 0.00 0.00
0.00 0.00 0.00 0.00 0.00 0.00 0.00 0.00 0.01 0.01 0.01 0.02 0.04 0.05 0.06 0.06 0.06 0.06 0.04 0.03 0.02 0.03 0.03 0.02 0.02 0.01 0.00 0.00 0.00 0.00 0.00 0.00 0.00 0.00 0.00 0.00 0.00 0.00
0.01 0.00 0.00 0.00 0.00 0.00 0.00 0.00 0.00 0.00 0.01 0.01 0.02 0.04 0.06 0.07 0.07 0.08 0.08 0.06 0.04 0.03 0.03 0.02 0.01 0.00 0.00 0.00 0.00 0.00 0.00 0.00 0.00 0.00 0.00 0.00 0.00 0.00
0.01 0.01 0.00 0.00 0.00 0.00 0.00 0.00 0.00 0.00 0.00 0.00 0.00 0.01 0.03 0.05 0.06 0.07 0.06 0.05 0.05 0.03 0.02 0.01 0.01 0.00 0.00 0.00 0.00 0.00 0.00 0.00 0.00 0.00 0.00 0.00 0.00 0.00
0.01 0.01 0.00 0.00 0.00 0.00 0.00 0.00 0.00 0.00 0.00 0.00 0.01 0.01 0.02 0.02 0.03 0.04 0.04 0.04 0.02 0.01 0.01 0.00 0.00 0.00 0.00 0.00 0.00 0.00 0.00 0.00 0.00 0.00 0.00 0.00 0.00 0.00
MSLP
1012.52 1013.16 1013.89 1014.58 1014.89 1015.93 1016.16 1016.50 1017.16 1018.32 1019.08 1018.95 1019.22 1019.01 1019.21 1019.56 1019.78 1020.18 1020.39 1020.58 1020.87 1021.12 1021.22 1021.40 1021.51 1021.65 1021.96 1022.36 1022.78 1023.17 1023.53 1023.98 1024.35 1024.64 1024.91 1025.21 1025.41 1025.42
1011.84 1012.57 1013.24 1013.90 1014.73 1015.07 1015.38 1015.82 1015.93 1016.86 1018.00 1018.19 1018.49 1018.39 1018.73 1018.98 1019.21 1019.62 1019.74 1020.07 1020.31 1020.51 1020.74 1020.99 1021.21 1021.39 1021.54 1021.86 1022.15 1022.57 1023.03 1023.42 1023.90 1024.28 1024.54 1024.77 1024.96 1025.08
1011.34 1012.09 1012.73 1013.40 1013.86 1014.34 1014.78 1015.24 1015.69 1016.26 1017.26 1017.72 1017.77 1018.12 1018.67 1018.65 1018.93 1019.15 1019.35 1019.66 1019.89 1019.99 1020.12 1020.32 1020.57 1020.89 1021.13 1021.34 1021.57 1021.88 1022.42 1022.87 1023.28 1023.74 1024.06 1024.33 1024.56 1024.74
1011.04 1011.74 1012.29 1012.91 1013.39 1013.77 1014.29 1014.83 1015.32 1015.66 1016.54 1017.11 1017.51 1017.99 1018.24 1018.33 1018.41 1018.91 1019.03 1019.17 1019.36 1019.29 1019.44 1019.72 1019.93 1020.15 1020.34 1020.60 1020.92 1021.29 1021.76 1022.19 1022.60 1023.06 1023.44 1023.79 1024.08 1024.32
1010.70 1011.20 1011.83 1012.50 1012.97 1013.31 1013.64 1014.17 1014.72 1015.45 1015.82 1016.49 1017.01 1017.39 1017.92 1018.19 1018.71 1018.79 1018.86 1018.96 1018.91 1018.86 1018.97 1019.03 1019.21 1019.21 1019.54 1020.02 1020.36 1020.69 1020.90 1021.37 1021.94 1022.41 1022.84 1023.23 1023.51 1023.80
1010.36 1010.84 1011.42 1011.96 1012.45 1012.85 1013.09 1013.72 1014.44 1014.93 1015.52 1015.98 1016.47 1017.12 1017.49 1018.00 1018.24 1018.63 1018.66 1018.44 1018.30 1018.31 1018.29 1018.36 1018.47 1018.60 1018.95 1019.12 1019.45 1019.80 1020.31 1020.76 1021.25 1021.70 1022.19 1022.63 1023.13 1023.47
1010.20 1010.68 1011.14 1011.45 1011.78 1012.24 1012.60 1013.15 1013.61 1014.17 1014.78 1015.25 1015.82 1016.54 1017.03 1017.55 1017.56 1017.49 1018.01 1017.84 1018.02 1018.26 1018.06 1018.07 1017.99 1018.01 1018.02 1018.26 1018.72 1019.04 1019.42 1019.92 1020.53 1021.13 1021.57 1021.92 1022.47 1022.98
1010.12 1010.51 1010.85 1011.11 1011.38 1011.74 1012.11 1012.36 1012.63 1013.31 1013.83 1014.27 1014.72 1015.09 1015.57 1015.93 1016.24 1016.51 1016.93 1017.59 1017.86 1017.15 1017.57 1017.38 1017.46 1017.57 1017.58 1017.46 1017.62 1018.17 1018.77 1019.27 1019.86 1020.39 1020.86 1021.30 1021.79 1022.09
1010.17 1010.37 1010.63 1010.78 1011.03 1011.42 1011.76 1011.99 1012.41 1012.52 1012.84 1013.31 1013.66 1013.89 1014.25 1014.77 1015.05 1015.43 1015.93 1016.11 1016.16 1016.41 1016.83 1016.95 1016.99 1016.75 1016.78 1017.00 1017.03 1017.51 1017.98 1018.35 1019.04 1019.46 1020.20 1020.62 1021.16 1021.42
1010.37 1010.51 1010.41 1010.47 1010.71 1011.05 1011.42 1011.63 1011.90 1012.10 1012.38 1012.67 1012.88 1013.11 1013.31 1013.42 1013.88 1014.23 1014.35 1015.08 1015.89 1016.03 1016.10 1016.59 1016.40 1016.16 1016.18 1016.51 1016.58 1017.02 1017.24 1017.78 1018.48 1018.86 1019.36 1019.89 1020.45 1020.82
1010.31 1010.60 1010.68 1010.54 1010.68 1010.79 1010.94 1011.22 1011.36 1011.47 1011.54 1011.71 1011.96 1012.24 1012.56 1012.78 1013.04 1013.60 1014.25 1014.94 1015.37 1015.63 1015.93 1016.02 1016.09 1016.27 1016.38 1016.30 1016.44 1016.54 1016.75 1017.17 1017.63 1018.16 1018.83 1019.36 1019.72 1020.08
1010.34 1010.49 1010.53 1010.47 1010.71 1010.76 1010.69 1010.74 1010.84 1011.00 1011.23 1011.49 1011.73 1011.87 1012.13 1012.22 1012.39 1012.63 1013.05 1013.70 1014.35 1015.08 1015.11 1015.65 1015.88 1016.27 1016.65 1016.12 1016.10 1016.28 1016.26 1016.51 1016.98 1017.44 1018.09 1018.65 1019.07 1019.61
1010.07 1010.20 1010.17 1010.20 1010.36 1010.40 1010.30 1010.24 1010.28 1010.53 1010.75 1011.02 1011.22 1011.51 1011.77 1011.91 1011.94 1011.93 1012.15 1012.56 1013.03 1013.52 1013.80 1014.53 1015.25 1015.86 1016.12 1016.44 1016.56 1016.57 1016.41 1016.36 1016.59 1017.04 1017.53 1018.19 1018.65 1019.00
1010.14 1010.12 1010.30 1010.33 1010.20 1010.08 1009.96 1009.93 1010.06 1010.20 1010.46 1010.79 1011.10 1011.40 1011.64 1011.71 1011.71 1011.90 1012.06 1012.46 1012.58 1012.78 1013.34 1013.93 1014.72 1015.17 1015.72 1016.40 1016.65 1016.78 1016.75 1016.80 1016.97 1017.47 1017.97 1018.28 1018.36 1018.63
1010.30 1010.22 1010.20 1010.14 1010.09 1009.92 1009.77 1009.81 1009.88 1009.96 1010.20 1010.62 1010.96 1011.23 1011.53 1011.66 1011.95 1012.41 1012.92 1013.03 1013.18 1013.37 1013.38 1013.86 1014.26 1014.87 1015.37 1015.94 1016.39 1016.69 1016.99 1017.26 1017.51 1017.81 1018.24 1018.61 1018.80 1018.93
1010.17 1010.24 1010.28 1010.04 1009.96 1009.68 1009.60 1009.54 1009.50 1009.63 1009.89 1010.28 1010.74 1011.19 1011.62 1011.93 1012.19 1012.49 1013.07 1013.36 1013.83 1014.37 1014.37 1014.37 1014.42 1014.73 1015.52 1015.92 1016.17 1016.64 1016.85 1017.37 1017.63 1017.93 1018.20 1018.40 1018.44 1018.50
1009.95 1009.99 1010.06 1010.02 1010.04 1009.68 1009.49 1009.51 1009.51 1009.64 1009.97 1010.44 1010.86 1011.34 1011.73 1011.85 1012.14 1012.50 1012.88 1013.44 1013.90 1014.49 1015.07 1015.19 1015.16 1015.27 1015.64 1015.89 1016.42 1016.70 1017.09 1017.53 1017.71 1017.83 1018.07 1018.11 1018.05 1018.16
1009.86 1009.93 1010.04 1010.12 1010.25 1009.68 1009.60 1009.74 1009.85 1010.00 1010.24 1010.57 1010.91 1011.25 1011.63 1011.87 1012.22 1012.65 1012.96 1013.36 1013.82 1014.44 1014.95 1015.36 1015.54 1015.68 1016.20 1016.68 1016.67 1017.00 1017.36 1017.69 1017.81 1017.96 1018.14 1018.29 1017.94 1017.75
1009.44 1009.70 1009.87 1009.98 1010.09 1009.80 1009.98 1010.01 1010.19 1010.34 1010.47 1010.66 1010.94 1011.23 1011.51 1011.77 1012.20 1012.62 1013.03 1013.50 1013.99 1014.47 1015.11 1015.37 1015.71 1015.94 1016.47 1016.96 1017.30 1017.05 1017.54 1017.85 1017.97 1018.11 1018.26 1018.39 1018.10 1017.70
1009.27 1009.45 1009.73 1009.98 1010.06 1010.03 1010.15 1010.25 1010.41 1010.48 1010.64 1010.80 1011.09 1011.36 1011.64 1011.95 1012.29 1012.54 1012.89 1013.35 1013.89 1014.58 1015.30 1015.63 1015.73 1016.13 1016.66 1017.02 1017.53 1017.61 1017.43 1017.68 1018.11 1018.33 1018.50 1018.23 1017.81 1017.02
1009.21 1009.47 1009.86 1009.84 1009.97 1009.93 1010.20 1010.39 1010.56 1010.55 1010.76 1011.01 1011.29 1011.52 1011.73 1011.98 1012.23 1012.58 1012.93 1013.42 1014.07 1014.71 1015.44 1015.85 1016.13 1016.46 1017.01 1017.26 1017.73 1018.01 1017.78 1017.58 1017.82 1018.10 1018.24 1018.36 1017.83 1016.84
1009.32 1009.68 1009.85 1009.84 1009.74 1009.89 1010.30 1010.51 1010.58 1010.64 1010.87 1011.19 1011.49 1011.71 1011.71 1012.02 1012.36 1012.63 1013.17 1013.75 1014.37 1014.95 1015.69 1016.42 1016.81 1017.16 1017.61 1018.11 1018.78 1018.79 1018.30 1017.90 1017.67 1017.56 1017.48 1017.51 1017.46 1016.88
1009.84 1009.90 1010.03 1009.96 1009.79 1009.98 1010.38 1010.51 1010.56 1010.77 1010.97 1011.28 1011.59 1011.78 1011.93 1012.24 1012.48 1012.89 1013.44 1014.08 1014.75 1015.52 1016.17 1016.90 1017.42 1017.76 1018.22 1018.47 1018.78 1019.01 1018.77 1018.46 1018.04 1017.64 1017.06 1016.55 1016.23 1015.78
Thickness
5581 5582 5581 5580 5581 5574 5576 5576 5577 5571 5573 5576 5579 5583 5583 5582 5583 5582 5582 5582 5579 5577 5576 5574 5573 5572 5570 5566 5560 5554 5550 5546 5540 5536 5532 5527 5524 5522
5574 5574 5575 5574 5569 5569 5572 5572 5580 5574 5572 5574 5573 5577 5577 5578 5577 5576 5577 5575 5573 5571 5570 5567 5565 5563 5562 5559 5554 5548 5542 5537 5532 5526 5522 5517 5513 5509
5565 5565 5566 5565 5567 5566 5566 5569 5570 5570 5567 5567 5569 5568 5567 5569 5569 5569 5568 5568 5566 5565 5564 5562 5559 5556 5553 5550 5546 5541 5534 5527 5522 5516 5511 5505 5500 5496
5555 5556 5558 5557 5559 5561 5562 5562 5561 5562 5561 5562 5560 5559 5559 5561 5562 5561 5560 5560 5559 5559 5557 5555 5552 5550 5547 5543 5538 5533 5526 5519 5513 5507 5499 5493 5487 5482
5545 5548 5548 5547 5550 5553 5556 5555 5555 5552 5554 5554 5556 5552 5550 5550 5548 5549 5550 5550 5551 5550 5548 5548 5546 5544 5541 5535 5530 5524 5519 5511 5504 5496 5488 5481 5475 5470
5536 5538 5539 5540 5541 5543 5548 5547 5544 5545 5543 5545 5546 5543 5542 5540 5540 5539 5537 5540 5542 5542 5542 5540 5537 5536 5530 5526 5522 5516 5508 5501 5493 5485 5477 5471 5464 5460
5525 5529 5530 5532 5534 5536 5539 5539 5540 5540 5539 5539 5540 5533 5534 5531 5533 5534 5533 5534 5533 5531 5532 5530 5528 5527 5524 5519 5513 5507 5500 5493 5484 5475 5469 5464 5457 5451
5516 5518 5521 5523 5526 5528 5530 5532 5536 5535 5535 5535 5535 5533 5534 5532 5529 5529 5527 5522 5526 5527 5521 5523 5519 5518 5515 5512 5507 5500 5493 5485 5477 5469 5463 5457 5451 5446
5502 5507 5510 5514 5516 5518 5519 5521 5524 5528 5529 5529 5531 5532 5531 5527 5524 5522 5517 5520 5524 5518 5512 5514 5508 5510 5507 5502 5498 5492 5485 5480 5471 5465 5457 5451 5445 5440
5487 5492 5499 5504 5507 5509 5510 5514 5516 5519 5521 5522 5523 5523 5521 5521 5520 5518 5518 5513 5507 5506 5504 5502 5499 5501 5497 5494 5488 5481 5478 5471 5462 5457 5452 5445 5439 5433
5477 5479 5485 5492 5495 5499 5502 5506 5509 5512 5513 5514 5514 5514 5513 5512 5510 5507 5504 5499 5499 5495 5489 5487 5488 5483 5480 5482 5477 5472 5469 5464 5456 5450 5443 5438 5433 5428
5468 5471 5476 5482 5483 5487 5493 5497 5501 5502 5502 5502 5504 5505 5503 5503 5503 5502 5500 5495 5492 5483 5482 5475 5473 5468 5465 5468 5466 5461 5459 5456 5450 5444 5437 5431 5426 5421
5460 5463 5469 5474 5476 5479 5485 5490 5493 5493 5494 5495 5496 5496 5494 5494 5494 5495 5494 5491 5488 5486 5480 5470 5464 5457 5452 5450 5448 5446 5446 5445 5441 5435 5429 5421 5416 5411
5450 5454 5457 5461 5467 5472 5477 5481 5482 5485 5485 5484 5484 5484 5482 5483 5484 5483 5482 5480 5478 5477 5470 5462 5454 5447 5439 5433 5434 5431 5430 5428 5425 5420 5415 5409 5404 5400
5437 5443 5447 5453 5457 5463 5468 5471 5474 5475 5475 5474 5474 5472 5470 5470 5469 5467 5464 5464 5462 5460 5457 5450 5442 5434 5429 5425 5421 5418 5416 5413 5409 5405 5400 5396 5392 5388
5429 5432 5437 5443 5449 5455 5459 5463 5465 5466 5466 5466 5463 5460 5457 5456 5455 5454 5450 5448 5445 5439 5436 5432 5427 5422 5416 5413 5410 5407 5404 5400 5396 5394 5390 5386 5383 5379
5421 5424 5428 5431 5436 5443 5447 5451 5454 5454 5453 5451 5449 5447 5445 5445 5442 5440 5437 5433 5431 5425 5419 5413 5411 5409 5405 5403 5398 5396 5392 5388 5386 5384 5380 5376 5372 5367
5409 5414 5418 5421 5425 5433 5437 5439 5441 5442 5441 5440 5438 5437 5434 5432 5430 5426 5424 5422 5418 5413 5407 5401 5398 5397 5392 5386 5386 5383 5380 5377 5374 5370 5366 5361 5362 5359
5401 5405 5409 5412 5416 5422 5424 5427 5428 5429 5429 5429 5428 5426 5423 5421 5420 5417 5414 5411 5407 5403 5397 5393 5389 5388 5384 5382 5372 5372 5366 5364 5361 5358 5354 5349 5347 5346
5391 5397 5399 5402 5405 5409 5411 5414 5416 5418 5419 5419 5417 5414 5411 5410 5409 5408 5405 5402 5397 5391 5385 5383 5381 5378 5376 5373 5362 5360 5359 5353 5348 5343 5339 5338 5338 5338
5381 5385 5386 5391 5394 5398 5400 5402 5404 5407 5407 5407 5406 5404 5402 5401 5400 5397 5395 5391 5386 5381 5375 5373 5369 5365 5360 5358 5351 5347 5346 5344 5340 5332 5327 5323 5323 5326
5370 5373 5375 5379 5384 5387 5388 5390 5393 5396 5397 5396 5393 5393 5393 5391 5389 5387 5384 5379 5374 5370 5363 5356 5353 5351 5346 5340 5331 5329 5331 5331 5329 5325 5322 5318 5312 5312
5354 5358 5362 5367 5372 5374 5375 5378 5383 5385 5385 5384 5383 5382 5382 5380 5379 5376 5371 5367 5361 5355 5350 5343 5339 5336 5331 5326 5321 5316 5315 5315 5314 5312 5311 5312 5309 5309